Stations météo

réclame
Mon MeteoGroup
Kenley, Grande-Bretagne (3781): Température de l'air & dewpoint: 19.09.2018 12:00:00 - 25.09.2018 12:00:00 (BST)Kenley, Grande-Bretagne (3781): Température de l'air -20cm & Température de l'air -100cm: 19.09.2018 12:00:00 - 25.09.2018 12:00:00 (BST)Kenley, Grande-Bretagne (3781): Vitesse du vent & gusts: 19.09.2018 12:00:00 - 25.09.2018 12:00:00 (BST)Kenley, Grande-Bretagne (3781): Direction du vent: 19.09.2018 12:00:00 - 25.09.2018 12:00:00 (BST)Kenley, Grande-Bretagne (3781): reduced air pressure: 19.09.2018 12:00:00 - 25.09.2018 12:00:00 (BST)Kenley, Grande-Bretagne (3781): visibility: 19.09.2018 12:00:00 - 25.09.2018 12:00:00 (BST)Kenley, Grande-Bretagne (3781): Quantités de précipitations: 19.09.2018 12:00:00 - 25.09.2018 12:00:00 (BST)
Date & Time tt [°C] td [°C] tt -20cm [°C] tt -100cm [°C] ff [km/h] ff [knt] fx [km/h] fx [knt] dd ppp [hPa] vv [km] rr [mm]
25.09.2018 12:00:00 14,1 5,3 - - 13 7 - - SSW 1039,2 35 0,0
25.09.2018 11:00:00 13,6 5,3 - - 9 5 - - SSE 1039,5 45 0,0
25.09.2018 10:00:00 13,0 4,8 13,0 15,2 5 3 - - S 1039,4 50 0,0
25.09.2018 09:00:00 11,3 6,6 - - 4 2 - - SE 1038,9 50 0,0
25.09.2018 08:00:00 4,1 3,9 - - 4 2 - - SE 1039,1 40 0,0
25.09.2018 07:00:00 3,3 3,1 - - 4 2 - - SE 1039,0 50 0,0
25.09.2018 06:00:00 3,3 3,0 - - 4 2 - - ESE 1039,3 45 0,0
25.09.2018 05:00:00 3,4 3,0 - - 0 0 - - N 1039,3 50 0,0
25.09.2018 04:00:00 3,8 3,4 - - 0 0 - - N 1039,1 50 0,0
25.09.2018 03:00:00 3,4 2,6 - - 2 1 - - S 1039,3 50 0,0
25.09.2018 02:00:00 3,9 2,7 - - 4 2 - - SSE 1039,6 50 0,0
25.09.2018 01:00:00 4,8 3,4 - - 4 2 - - S 1039,8 50 0,0
25.09.2018 00:00:00 5,0 2,9 - - 5 3 - - SSE 1039,6 50 0,0
24.09.2018 23:00:00 7,3 2,9 - - 5 3 - - SE 1039,3 50 0,0
24.09.2018 22:00:00 4,9 2,7 - - 4 2 - - E 1039,4 50 0,0
24.09.2018 21:00:00 6,3 3,9 - - 4 2 - - ESE 1039,1 45 0,0
24.09.2018 20:00:00 7,8 4,0 - - 4 2 - - E 1038,6 50 0,0
24.09.2018 19:00:00 9,9 2,5 - - 5 3 - - NNE 1038,0 50 0,0
24.09.2018 18:00:00 12,5 2,6 - - 9 5 - - NNE 1037,3 50 0,0
24.09.2018 17:00:00 13,6 2,3 - - 13 7 - - NNW 1037,2 50 0,0
24.09.2018 16:00:00 14,0 2,8 - - 11 6 - - N 1037,6 50 0,0
24.09.2018 15:00:00 13,6 2,8 - - 13 7 - - NNW 1037,9 45 0,0
24.09.2018 14:00:00 13,3 4,1 - - 13 7 - - N 1038,0 40 0,0
24.09.2018 13:00:00 12,5 4,2 - - 13 7 - - N 1038,2 45 0,0
24.09.2018 12:00:00 11,4 5,8 - - 13 7 - - WNW 1038,7 29 0,0
24.09.2018 11:00:00 10,1 6,1 - - 11 6 - - NW 1038,5 45 0,0
24.09.2018 10:00:00 8,8 5,9 13,5 15,5 11 6 - - NNW 1037,9 45 0,0
24.09.2018 09:00:00 7,4 6,1 - - 8 4 - - NW 1037,4 40 0,0
24.09.2018 08:00:00 4,8 4,6 - - 8 4 - - WNW 1037,0 45 0,0
24.09.2018 07:00:00 3,0 2,6 - - 8 4 - - W 1036,3 21 0,2
24.09.2018 06:00:00 4,0 3,7 - - 9 5 - - NW 1035,9 45 0,0
24.09.2018 05:00:00 4,1 3,6 - - 11 6 - - WNW 1035,6 45 0,0
24.09.2018 04:00:00 4,8 4,4 - - 8 4 - - W 1034,8 45 0,0
24.09.2018 03:00:00 4,8 4,3 - - 8 4 - - WNW 1034,4 50 0,0
24.09.2018 02:00:00 5,1 4,1 - - 9 5 - - WNW 1033,8 45 0,0
24.09.2018 01:00:00 5,6 4,6 - - 11 6 - - NW 1032,4 50 0,0
24.09.2018 00:00:00 5,8 4,7 - - 8 4 - - W 1031,7 45 0,0
23.09.2018 23:00:00 6,6 4,7 - - 5 3 - - WNW 1030,9 50 0,0
23.09.2018 22:00:00 7,3 4,5 - - 8 4 - - NNW 1029,5 50 0,0
23.09.2018 21:00:00 8,6 5,2 - - 9 5 - - NNW 1028,6 50 0,0
23.09.2018 20:00:00 9,0 3,9 - - 13 7 - - N 1026,8 50 0,0
23.09.2018 19:00:00 10,1 2,2 - - 13 7 - - NNW 1024,8 50 0,0
23.09.2018 18:00:00 11,3 3,2 - - 18 10 - - NNW 1023,3 50 0,0
23.09.2018 17:00:00 12,4 4,0 - - 21 11 - - NNW 1021,9 45 0,0
23.09.2018 16:00:00 11,2 5,4 - - 21 11 - - NW 1021,1 50 0,0
23.09.2018 15:00:00 10,6 6,5 - - 21 11 - - NNW 1020,1 30 0,0
23.09.2018 14:00:00 8,6 7,2 - - 18 10 - - NNW 1019,3 45 0,2
23.09.2018 13:00:00 7,6 6,0 - - 22 12 - - N 1018,7 29 0,2
23.09.2018 12:00:00 7,9 6,8 - - 24 13 - - N 1017,1 50 0,6
23.09.2018 11:00:00 8,5 8,3 - - 21 11 - - N 1015,8 10 3,0
23.09.2018 10:00:00 8,6 8,5 14,7 15,7 18 10 - - N 1015,7 7 5,2
23.09.2018 09:00:00 8,4 8,3 - - 21 11 - - N 1014,1 6 2,4
23.09.2018 08:00:00 8,4 8,3 - - 16 9 - - N 1013,5 7 1,2
23.09.2018 07:00:00 8,6 8,5 - - 15 8 - - NE 1013,2 3,0 0,8
23.09.2018 06:00:00 9,0 9,0 - - 11 6 - - NE 1013,8 3,1 0,2
23.09.2018 05:00:00 9,5 9,5 - - 11 6 - - NE 1013,1 2,5 0,2
23.09.2018 04:00:00 9,8 9,8 - - 11 6 - - NE 1013,6 0,3 0,0
23.09.2018 03:00:00 10,3 10,2 - - 11 6 - - NNE 1013,7 0,7 0,0
23.09.2018 02:00:00 10,4 10,3 - - 9 5 - - NE 1013,6 1,7 0,2
23.09.2018 01:00:00 10,3 10,3 - - 9 5 - - NE 1013,5 7 0,0
23.09.2018 00:00:00 10,0 9,9 - - 9 5 - - ENE 1013,4 1,3 0,0
22.09.2018 23:00:00 9,9 9,7 - - 8 4 - - ENE 1013,5 0,8 0,0
22.09.2018 22:00:00 10,1 9,9 - - 8 4 - - E 1013,8 12 0,0
22.09.2018 21:00:00 9,9 9,8 - - 8 4 - - E 1014,5 8 0,2
22.09.2018 20:00:00 9,7 9,5 - - 8 4 - - E 1014,9 4,2 0,4
22.09.2018 19:00:00 9,5 9,2 - - 9 5 - - ESE 1014,7 7 1,2
22.09.2018 18:00:00 9,6 9,2 - - 8 4 - - ESE 1015,8 5 1,0
22.09.2018 17:00:00 9,7 9,1 - - 8 4 - - ESE 1016,7 5 0,6
22.09.2018 16:00:00 10,0 8,3 - - 8 4 - - SSE 1017,7 10 0,8
22.09.2018 15:00:00 10,1 8,9 - - 4 2 - - E 1018,5 22 0,2
22.09.2018 14:00:00 10,4 8,3 - - 5 3 - - NW 1019,3 29 0,6
22.09.2018 13:00:00 10,7 9,0 - - 8 4 - - W 1020,1 14 1,0
22.09.2018 12:00:00 12,0 8,4 - - 15 8 - - W 1020,2 19 0,0
22.09.2018 11:00:00 12,2 8,6 - - 15 8 - - WSW 1020,0 30 0,0
22.09.2018 10:00:00 11,9 8,7 15,0 15,7 11 6 - - SW 1019,9 25 0,0
22.09.2018 09:00:00 10,6 8,7 - - 11 6 - - SW 1020,1 28 0,0
22.09.2018 08:00:00 10,2 8,2 - - 8 4 - - SW 1019,7 35 0,0
22.09.2018 07:00:00 9,5 7,9 - - 9 5 - - SW 1020,0 25 0,0
22.09.2018 06:00:00 9,8 7,9 - - 11 6 - - SW 1019,4 21 0,0
22.09.2018 05:00:00 9,9 7,8 - - 11 6 - - SW 1019,4 27 0,0
22.09.2018 04:00:00 9,8 7,6 - - 11 6 - - SW 1019,5 26 0,0
22.09.2018 03:00:00 9,5 7,3 - - 11 6 - - SW 1019,6 30 0,0
22.09.2018 02:00:00 9,7 7,3 - - 9 5 - - SW 1019,3 45 0,0
22.09.2018 01:00:00 10,0 7,0 - - 13 7 - - SW 1019,1 40 0,0
22.09.2018 00:00:00 10,2 6,8 - - 15 8 - - WSW 1019,2 40 0,0
21.09.2018 23:00:00 10,5 7,1 - - 16 9 - - WSW 1018,4 50 0,0
21.09.2018 22:00:00 10,7 6,8 - - 15 8 - - WSW 1017,9 40 0,0
21.09.2018 21:00:00 11,3 5,9 - - 21 11 - - WSW 1017,0 45 0,0
21.09.2018 20:00:00 12,2 5,9 - - 21 11 - - W 1016,0 45 0,0
21.09.2018 19:00:00 13,1 5,9 - - 26 14 55 30 W 1014,7 40 0,0
21.09.2018 18:00:00 14,0 6,4 - - 29 16 57 31 W 1013,2 40 0,0
21.09.2018 17:00:00 14,5 6,5 - - 39 21 55 30 W 1012,5 45 0,0
21.09.2018 16:00:00 14,2 6,2 - - 39 21 63 34 W 1012,0 50 0,0
21.09.2018 15:00:00 13,1 6,4 - - 26 14 67 36 W 1011,5 30 0,0
21.09.2018 14:00:00 14,2 4,1 - - 37 20 57 31 W 1010,5 45 0,0
21.09.2018 13:00:00 14,1 5,8 - - 31 17 52 28 WSW 1010,2 35 0,0
21.09.2018 12:00:00 13,2 5,7 - - 29 16 48 26 W 1009,7 45 0,0
21.09.2018 11:00:00 12,1 6,4 - - 28 15 50 27 W 1009,5 50 0,0
21.09.2018 10:00:00 11,3 6,1 16,0 15,7 28 15 48 26 W 1008,9 50 0,0
21.09.2018 09:00:00 10,3 6,1 - - 21 11 - - W 1007,7 45 0,0
21.09.2018 08:00:00 9,8 6,6 - - 24 13 - - W 1006,4 50 0,0
21.09.2018 07:00:00 10,3 7,0 - - 28 15 - - W 1004,5 50 0,0
21.09.2018 06:00:00 10,9 7,9 - - 28 15 50 27 W 1003,0 45 0,0
21.09.2018 05:00:00 11,6 9,2 - - 26 14 50 27 W 1001,6 30 0,0
21.09.2018 04:00:00 12,1 9,1 - - 29 16 59 32 WSW 1000,6 45 0,2
21.09.2018 03:00:00 14,2 13,3 - - 28 15 72 39 WSW 998,8 11 4,6
21.09.2018 02:00:00 16,6 15,7 - - 39 21 70 38 SSW 997,9 15 0,4
21.09.2018 01:00:00 16,9 15,4 - - 42 23 72 39 SSW 999,4 19 0,6
21.09.2018 00:00:00 17,1 15,2 - - 41 22 65 35 SSW 1000,8 8 0,2
20.09.2018 23:00:00 18,3 14,2 - - 34 18 61 33 SSW 1002,5 30 0,0
20.09.2018 22:00:00 18,4 13,9 - - 31 17 55 30 SSW 1003,8 27 0,0
20.09.2018 21:00:00 18,2 14,3 - - 28 15 52 28 SSW 1005,0 14 0,0
20.09.2018 20:00:00 18,1 14,2 - - 29 16 61 33 SSW 1005,9 28 0,0
20.09.2018 19:00:00 18,2 14,5 - - 29 16 52 28 SSW 1006,9 27 0,2
20.09.2018 18:00:00 18,5 14,6 - - 34 18 63 34 SSW 1007,9 24 0,0
20.09.2018 17:00:00 18,9 14,6 - - 37 20 67 36 SSW 1008,5 18 0,0
20.09.2018 16:00:00 18,6 13,8 - - 39 21 59 32 SSW 1009,6 24 0,0
20.09.2018 15:00:00 18,1 13,8 - - 34 18 57 31 SW 1010,6 23 0,0
20.09.2018 14:00:00 18,1 13,5 - - 35 19 55 30 SSW 1010,9 24 0,0
20.09.2018 13:00:00 17,6 14,2 - - 24 13 50 27 SSW 1011,5 27 0,0
20.09.2018 12:00:00 17,4 14,6 - - 22 12 - - SSW 1012,2 15 0,0
20.09.2018 11:00:00 16,5 15,2 - - 24 13 - - SW 1012,8 5 0,0
20.09.2018 10:00:00 16,9 14,6 16,2 15,7 26 14 48 26 SSW 1012,8 10 0,0
20.09.2018 09:00:00 17,1 14,5 - - 26 14 46 25 SSW 1012,6 14 0,0
20.09.2018 08:00:00 16,4 14,3 - - 24 13 - - SSW 1012,7 16 0,0
20.09.2018 07:00:00 16,2 14,6 - - 21 11 - - SW 1012,9 17 0,0
20.09.2018 06:00:00 16,4 14,1 - - 22 12 - - SW 1013,0 16 0,0
20.09.2018 05:00:00 16,4 14,3 - - 24 13 - - SSW 1013,1 14 0,0
20.09.2018 04:00:00 16,3 14,5 - - 18 10 - - SSW 1013,6 13 0,0
20.09.2018 03:00:00 16,1 14,7 - - 18 10 - - SSW 1014,0 12 0,0
20.09.2018 02:00:00 16,4 14,6 - - 21 11 - - SSW 1014,1 16 0,0
20.09.2018 01:00:00 16,2 14,8 - - 16 9 - - SW 1014,4 14 0,0
20.09.2018 00:00:00 16,4 14,6 - - 16 9 - - SSW 1014,6 16 0,0
19.09.2018 23:00:00 16,6 14,6 - - 18 10 - - SW 1014,8 16 0,0
19.09.2018 22:00:00 16,6 14,6 - - 18 10 - - SW 1015,1 14 0,0
19.09.2018 21:00:00 16,7 14,3 - - 18 10 - - SW 1014,8 16 0,0
19.09.2018 20:00:00 17,0 14,3 - - 21 11 - - SW 1014,5 17 0,0
19.09.2018 19:00:00 17,8 13,9 - - 24 13 - - SW 1014,0 21 0,0
19.09.2018 18:00:00 18,5 13,1 - - 29 16 55 30 SW 1013,6 26 0,0
19.09.2018 17:00:00 19,4 13,1 - - 37 20 63 34 SW 1012,9 25 0,0
19.09.2018 16:00:00 19,3 13,5 - - 34 18 61 33 SW 1012,6 26 0,0
19.09.2018 15:00:00 19,0 14,7 - - 31 17 57 31 SW 1012,6 18 0,0
19.09.2018 14:00:00 18,4 16,0 - - 31 17 55 30 SW 1012,9 20 0,0
19.09.2018 13:00:00 18,1 16,0 - - 31 17 55 30 SW 1012,7 13 0,2
19.09.2018 12:00:00 17,9 15,3 - - 34 18 59 32 SW 1012,8 9 0,0

tt = Température de l'air
td = dewpoint
tt -20cm = Température de l'air -20cm
tt -100cm = Température de l'air -100cm
ff = Vitesse du vent
fx = gusts
dd = Direction du vent
ppp = reduced air pressure
vv = visibility
rr = Quantités de précipitations

stations d'obs. à proximité